,,,PA_Meas_PMT16A,,PR_Meas_QMR101_102,,RH_Meas_QMH101,,SR_Meas_QMS101,,TA_Meas_QMH101,,GenWind,,GenWind,
date,time,status,PA,status,PR,status,RH,status,SR,status,TA,status,DirAvg,status,SpdAvg,
2011-08-01, 00:00:05,VALID,1008.849,VALID,0.0,VALID,102.01,VALID,0.0,VALID,25.195,VALID,44.0,VALID,0.0,
2011-08-01, 00:01:05,VALID,1008.839,VALID,0.0,VALID,101.949,VALID,0.0,VALID,25.195,VALID,44.0,VALID,0.0,
2011-08-01, 00:02:05,VALID,1008.841,VALID,0.0,VALID,101.987,VALID,0.0,VALID,25.175,VALID,45.0,VALID,0.223,
2011-08-01, 00:03:05,VALID,1008.84,VALID,0.0,VALID,102.155,VALID,0.0,VALID,25.175,VALID,46.0,VALID,0.27,
2011-08-01, 00:04:05,VALID,1008.826,VALID,0.0,VALID,102.177,VALID,0.0,VALID,25.156,VALID,59.0,VALID,0.496,
2011-08-01, 00:05:05,VALID,1008.831,VALID,0.0,VALID,102.101,VALID,0.106,VALID,25.156,VALID,92.0,VALID,0.35,
2011-08-01, 00:06:05,VALID,1008.81,VALID,0.0,VALID,102.277,VALID,0.0,VALID,25.136,VALID,92.0,VALID,0.454,
2011-08-01, 00:07:05,VALID,1008.801,VALID,0.0,VALID,102.666,VALID,0.0,VALID,25.175,VALID,121.0,VALID,0.724,
2011-08-01, 00:08:05,VALID,1008.765,VALID,0.0,VALID,102.856,VALID,0.0,VALID,25.234,VALID,125.0,VALID,0.566,
2011-08-01, 00:09:05,VALID,1008.759,VALID,0.0,VALID,102.871,VALID,0.0,VALID,25.273,VALID,122.0,VALID,0.468,
2011-08-01, 00:10:05,VALID,1008.716,VALID,0.0,VALID,102.917,VALID,0.0,VALID,25.312,VALID,112.0,VALID,0.717,
2011-08-01, 00:11:05,VALID,1008.708,VALID,0.0,VALID,102.688,VALID,0.0,VALID,25.37,VALID,112.0,VALID,0.611,
2011-08-01, 00:12:05,VALID,1008.709,VALID,0.0,VALID,102.391,VALID,0.0,VALID,25.39,VALID,109.0,VALID,0.564,
2011-08-01, 00:13:05,VALID,1008.681,VALID,0.0,VALID,101.598,VALID,0.0,VALID,25.331,VALID,57.0,VALID,0.617,
2011-08-01, 00:14:05,VALID,1008.653,VALID,0.0,VALID,101.278,VALID,0.0,VALID,25.273,VALID,56.0,VALID,0.384,
2011-08-01, 00:15:05,VALID,1008.673,VALID,0.0,VALID,101.087,VALID,0.0,VALID,25.214,VALID,55.0,VALID,0.537,
2011-08-01, 00:16:05,VALID,1008.673,VALID,0.0,VALID,101.575,VALID,0.0,VALID,25.195,VALID,55.0,VALID,0.436,
2011-08-01, 00:17:05,VALID,1008.675,VALID,0.0,VALID,101.949,VALID,0.0,VALID,25.115,VALID,56.0,VALID,0.952,
2011-08-01, 00:18:05,VALID,1008.651,VALID,0.0,VALID,102.033,VALID,0.0,VALID,25.097,VALID,58.0,VALID,0.357,
2011-08-01, 00:19:05,VALID,1008.66,VALID,0.0,VALID,102.246,VALID,0.0,VALID,25.078,VALID,58.0,VALID,0.343,
2011-08-01, 00:20:05,VALID,1008.63,VALID,0.0,VALID,102.33,VALID,0.0,VALID,25.039,VALID,58.0,VALID,0.413,
2011-08-01, 00:21:05,VALID,1008.665,VALID,0.0,VALID,102.269,VALID,0.0,VALID,24.98,VALID,58.0,VALID,0.494,
2011-08-01, 00:22:05,VALID,1008.651,VALID,0.0,VALID,102.322,VALID,0.106,VALID,24.941,VALID,58.0,VALID,0.486,
2011-08-01, 00:23:05,VALID,1008.615,VALID,0.0,VALID,102.666,VALID,0.0,VALID,24.9,VALID,3.0,VALID,0.863,
2011-08-01, 00:24:05,VALID,1008.608,VALID,0.0,VALID,102.803,VALID,0.0,VALID,24.863,VALID,3.0,VALID,0.229,
2011-08-01, 00:25:05,VALID,1008.567,VALID,0.0,VALID,102.963,VALID,0.0,VALID,24.824,VALID,3.0,VALID,0.061,
2011-08-01, 00:26:05,VALID,1008.54,VALID,0.0,VALID,103.085,VALID,0.0,VALID,24.805,VALID,3.0,VALID,0.0,
2011-08-01, 00:27:05,VALID,1008.532,VALID,0.0,VALID,103.23,VALID,0.0,VALID,24.785,VALID,3.0,VALID,0.45,
2011-08-01, 00:28:05,VALID,1008.482,VALID,0.0,VALID,103.321,VALID,0.0,VALID,24.746,VALID,3.0,VALID,0.202,
2011-08-01, 00:29:05,VALID,1008.48,VALID,0.0,VALID,103.436,VALID,0.0,VALID,24.727,VALID,3.0,VALID,0.016,
2011-08-01, 00:30:05,VALID,1008.469,VALID,0.0,VALID,103.481,VALID,0.0,VALID,24.707,VALID,3.0,VALID,0.046,
2011-08-01, 00:31:05,VALID,1008.439,VALID,0.0,VALID,103.603,VALID,0.0,VALID,24.688,VALID,3.0,VALID,0.38,
2011-08-01, 00:32:05,VALID,1008.451,VALID,0.0,VALID,103.71,VALID,0.0,VALID,24.668,VALID,3.0,VALID,0.305,
2011-08-01, 00:33:05,VALID,1008.462,VALID,0.0,VALID,103.771,VALID,0.0,VALID,24.649,VALID,3.0,VALID,0.412,
2011-08-01, 00:34:05,VALID,1008.446,VALID,0.0,VALID,103.84,VALID,0.0,VALID,24.61,VALID,3.0,VALID,0.311,
2011-08-01, 00:35:05,VALID,1008.491,VALID,0.0,VALID,103.848,VALID,0.0,VALID,24.55,VALID,3.0,VALID,0.25,
2011-08-01, 00:36:05,VALID,1008.516,VALID,0.0,VALID,103.901,VALID,0.0,VALID,24.551,VALID,3.0,VALID,0.161,
2011-08-01, 00:37:05,VALID,1008.503,VALID,0.0,VALID,103.931,VALID,0.0,VALID,24.512,VALID,3.0,VALID,0.309,
2011-08-01, 00:38:05,VALID,1008.516,VALID,0.0,VALID,104.0,VALID,0.0,VALID,24.474,VALID,3.0,VALID,0.501,
2011-08-01, 00:39:05,VALID,1008.538,VALID,0.0,VALID,104.0,VALID,0.106,VALID,24.433,VALID,3.0,VALID,0.423,
2011-08-01, 00:40:05,VALID,1008.568,VALID,0.0,VALID,104.0,VALID,0.0,VALID,24.415,VALID,3.0,VALID,0.296,
2011-08-01, 00:41:05,VALID,1008.57,VALID,0.0,VALID,104.0,VALID,0.0,VALID,24.396,VALID,3.0,VALID,0.461,
2011-08-01, 00:42:05,VALID,1008.575,VALID,0.0,VALID,104.0,VALID,0.0,VALID,24.357,VALID,3.0,VALID,0.374,
2011-08-01, 00:43:05,VALID,1008.559,VALID,0.0,VALID,104.0,VALID,0.0,VALID,24.357,VALID,3.0,VALID,0.436,
2011-08-01, 00:44:05,VALID,1008.516,VALID,0.0,VALID,104.0,VALID,0.0,VALID,24.337,VALID,3.0,VALID,0.468,
2011-08-01, 00:45:05,VALID,1008.532,VALID,0.0,VALID,104.0,VALID,0.0,VALID,24.277,VALID,3.0,VALID,0.352,
2011-08-01, 00:46:05,VALID,1008.515,VALID,0.0,VALID,104.0,VALID,0.0,VALID,24.279,VALID,3.0,VALID,0.466,
2011-08-01, 00:47:05,VALID,1008.486,VALID,0.0,VALID,104.0,VALID,0.0,VALID,24.259,VALID,3.0,VALID,0.15,
2011-08-01, 00:48:05,VALID,1008.482,VALID,0.0,VALID,104.0,VALID,0.0,VALID,24.218,VALID,3.0,VALID,0.179,
2011-08-01, 00:49:05,VALID,1008.461,VALID,0.0,VALID,104.0,VALID,0.0,VALID,24.199,VALID,3.0,VALID,0.094,
2011-08-01, 00:50:05,VALID,1008.464,VALID,0.0,VALID,104.0,VALID,0.0,VALID,24.201,VALID,3.0,VALID,0.002,
2011-08-01, 00:51:05,VALID,1008.459,VALID,0.0,VALID,104.0,VALID,0.106,VALID,24.162,VALID,3.0,VALID,0.0,
2011-08-01, 00:52:05,VALID,1008.463,VALID,0.0,VALID,104.0,VALID,0.106,VALID,24.142,VALID,3.0,VALID,0.191,
2011-08-01, 00:53:05,VALID,1008.45,VALID,0.0,VALID,104.0,VALID,0.0,VALID,24.162,VALID,3.0,VALID,0.259,
2011-08-01, 00:54:05,VALID,1008.434,VALID,0.0,VALID,104.0,VALID,0.106,VALID,24.162,VALID,3.0,VALID,0.188,
2011-08-01, 00:55:05,VALID,1008.414,VALID,0.0,VALID,104.0,VALID,0.106,VALID,24.142,VALID,3.0,VALID,0.062,
2011-08-01, 00:56:05,VALID,1008.409,VALID,0.0,VALID,104.0,VALID,0.0,VALID,24.123,VALID,3.0,VALID,0.038,
2011-08-01, 00:57:05,VALID,1008.359,VALID,0.0,VALID,104.0,VALID,0.0,VALID,24.103,VALID,3.0,VALID,0.268,
2011-08-01, 00:58:05,VALID,1008.345,VALID,0.0,VALID,104.0,VALID,0.106,VALID,24.082,VALID,3.0,VALID,0.173,
2011-08-01, 00:59:05,VALID,1008.314,VALID,0.0,VALID,104.0,VALID,0.0,VALID,24.084,VALID,3.0,VALID,0.365,
2011-08-01, 01:00:05,VALID,1008.285,VALID,0.0,VALID,104.0,VALID,0.0,VALID,24.084,VALID,3.0,VALID,0.287,
2011-08-01, 01:01:05,VALID,1008.226,VALID,0.0,VALID,104.0,VALID,0.0,VALID,24.064,VALID,3.0,VALID,0.238,
2011-08-01, 01:02:05,VALID,1008.199,VALID,0.0,VALID,104.0,VALID,0.0,VALID,24.045,VALID,3.0,VALID,0.107,
2011-08-01, 01:03:05,VALID,1008.209,VALID,0.0,VALID,104.0,VALID,0.0,VALID,24.025,VALID,3.0,VALID,0.0,
2011-08-01, 01:04:05,VALID,1008.189,VALID,0.0,VALID,104.0,VALID,0.0,VALID,24.004,VALID,3.0,VALID,0.264,
2011-08-01, 01:05:05,VALID,1008.187,VALID,0.0,VALID,104.0,VALID,0.0,VALID,24.025,VALID,3.0,VALID,0.348,
2011-08-01, 01:06:05,VALID,1008.141,VALID,0.0,VALID,104.0,VALID,0.0,VALID,24.023,VALID,3.0,VALID,0.243,
2011-08-01, 01:07:05,VALID,1008.108,VALID,0.0,VALID,104.0,VALID,0.0,VALID,24.045,VALID,3.0,VALID,0.299,
2011-08-01, 01:08:05,VALID,1008.077,VALID,0.0,VALID,104.0,VALID,0.0,VALID,24.025,VALID,3.0,VALID,0.274,
2011-08-01, 01:09:05,VALID,1008.059,VALID,0.0,VALID,104.0,VALID,0.106,VALID,24.045,VALID,3.0,VALID,0.387,
2011-08-01, 01:10:05,VALID,1008.039,VALID,0.0,VALID,104.0,VALID,0.0,VALID,24.045,VALID,3.0,VALID,0.3,
2011-08-01, 01:11:05,VALID,1008.026,VALID,0.0,VALID,104.0,VALID,0.0,VALID,24.045,VALID,3.0,VALID,0.232,
2011-08-01, 01:12:05,VALID,1008.027,VALID,0.0,VALID,104.0,VALID,0.0,VALID,24.045,VALID,3.0,VALID,0.0,
2011-08-01, 01:13:05,VALID,1008.033,VALID,0.0,VALID,104.0,VALID,0.0,VALID,24.025,VALID,3.0,VALID,0.159,
2011-08-01, 01:14:05,VALID,1008.044,VALID,0.0,VALID,104.0,VALID,0.0,VALID,24.025,VALID,3.0,VALID,0.369,
2011-08-01, 01:15:05,VALID,1008.087,VALID,0.0,VALID,104.0,VALID,0.0,VALID,24.025,VALID,3.0,VALID,0.413,
2011-08-01, 01:16:05,VALID,1008.097,VALID,0.0,VALID,104.0,VALID,0.0,VALID,23.986,VALID,3.0,VALID,0.481,
2011-08-01, 01:17:05,VALID,1008.123,VALID,0.0,VALID,104.0,VALID,0.0,VALID,23.986,VALID,3.0,VALID,0.632,
2011-08-01, 01:18:05,VALID,1008.106,VALID,0.0,VALID,104.0,VALID,0.106,VALID,23.967,VALID,3.0,VALID,0.391,
2011-08-01, 01:19:05,VALID,1008.105,VALID,0.0,VALID,104.0,VALID,0.0,VALID,23.967,VALID,3.0,VALID,0.505,
2011-08-01, 01:20:05,VALID,1008.109,VALID,0.0,VALID,104.0,VALID,0.0,VALID,23.947,VALID,3.0,VALID,0.368,
2011-08-01, 01:21:05,VALID,1008.092,VALID,0.0,VALID,104.0,VALID,0.106,VALID,23.928,VALID,3.0,VALID,0.409,
2011-08-01, 01:22:05,VALID,1008.097,VALID,0.0,VALID,104.0,VALID,0.0,VALID,23.908,VALID,3.0,VALID,0.428,
2011-08-01, 01:23:05,VALID,1008.095,VALID,0.0,VALID,104.0,VALID,0.0,VALID,23.889,VALID,3.0,VALID,0.518,
2011-08-01, 01:24:05,VALID,1008.082,VALID,0.0,VALID,104.0,VALID,0.0,VALID,23.869,VALID,3.0,VALID,0.251,
2011-08-01, 01:25:05,VALID,1008.054,VALID,0.0,VALID,104.0,VALID,0.0,VALID,23.83,VALID,3.0,VALID,0.209,
2011-08-01, 01:26:05,VALID,1008.026,VALID,0.0,VALID,104.0,VALID,0.0,VALID,23.811,VALID,3.0,VALID,0.145,
2011-08-01, 01:27:05,VALID,1007.995,VALID,0.0,VALID,104.0,VALID,0.0,VALID,23.77,VALID,3.0,VALID,0.0,
2011-08-01, 01:28:05,VALID,1007.953,VALID,0.0,VALID,104.0,VALID,0.0,VALID,23.731,VALID,3.0,VALID,0.0,
2011-08-01, 01:29:05,VALID,1007.906,VALID,0.0,VALID,104.0,VALID,0.0,VALID,23.713,VALID,3.0,VALID,0.0,
2011-08-01, 01:30:05,VALID,1007.886,VALID,0.0,VALID,104.0,VALID,0.0,VALID,23.692,VALID,3.0,VALID,0.228,
2011-08-01, 01:31:05,VALID,1007.895,VALID,0.0,VALID,104.0,VALID,0.0,VALID,23.694,VALID,3.0,VALID,0.336,
2011-08-01, 01:32:05,VALID,1007.928,VALID,0.0,VALID,104.0,VALID,0.0,VALID,23.694,VALID,3.0,VALID,0.577,
2011-08-01, 01:33:05,VALID,1007.939,VALID,0.0,VALID,104.0,VALID,0.0,VALID,23.752,VALID,3.0,VALID,0.7,
2011-08-01, 01:34:05,VALID,1007.954,VALID,0.0,VALID,104.0,VALID,0.0,VALID,23.752,VALID,3.0,VALID,0.531,
2011-08-01, 01:35:05,VALID,1007.948,VALID,0.0,VALID,104.0,VALID,0.0,VALID,23.712,VALID,3.0,VALID,0.431,
2011-08-01, 01:36:05,VALID,1007.923,VALID,0.0,VALID,104.0,VALID,0.0,VALID,23.752,VALID,3.0,VALID,0.391,
2011-08-01, 01:37:05,VALID,1007.926,VALID,0.0,VALID,104.0,VALID,0.0,VALID,23.713,VALID,3.0,VALID,0.184,
2011-08-01, 01:38:05,VALID,1007.87,VALID,0.0,VALID,104.0,VALID,0.0,VALID,23.713,VALID,3.0,VALID,0.269,
2011-08-01, 01:39:05,VALID,1007.867,VALID,0.0,VALID,104.0,VALID,0.106,VALID,23.653,VALID,3.0,VALID,0.002,
2011-08-01, 01:40:05,VALID,1007.855,VALID,0.0,VALID,104.0,VALID,0.106,VALID,23.694,VALID,3.0,VALID,0.0,
2011-08-01, 01:41:05,VALID,1007.873,VALID,0.0,VALID,104.0,VALID,0.106,VALID,23.653,VALID,3.0,VALID,0.0,
2011-08-01, 01:42:05,VALID,1007.873,VALID,0.0,VALID,104.0,VALID,0.0,VALID,23.614,VALID,3.0,VALID,0.0,
2011-08-01, 01:43:05,VALID,1007.851,VALID,0.0,VALID,104.0,VALID,0.106,VALID,23.595,VALID,3.0,VALID,0.0,
2011-08-01, 01:44:05,VALID,1007.848,VALID,0.0,VALID,104.0,VALID,0.0,VALID,23.575,VALID,3.0,VALID,0.0,
2011-08-01, 01:45:05,VALID,1007.834,VALID,0.0,VALID,104.0,VALID,0.106,VALID,23.577,VALID,3.0,VALID,0.0,
2011-08-01, 01:46:05,VALID,1007.813,VALID,0.0,VALID,104.0,VALID,0.0,VALID,23.517,VALID,3.0,VALID,0.0,
2011-08-01, 01:47:05,VALID,1007.836,VALID,0.0,VALID,104.0,VALID,0.0,VALID,23.538,VALID,3.0,VALID,0.0,
2011-08-01, 01:48:05,VALID,1007.833,VALID,0.0,VALID,104.0,VALID,0.0,VALID,23.559,VALID,3.0,VALID,0.337,
2011-08-01, 01:49:05,VALID,1007.83,VALID,0.0,VALID,104.0,VALID,0.0,VALID,23.579,VALID,3.0,VALID,0.505,
2011-08-01, 01:50:05,VALID,1007.851,VALID,0.0,VALID,104.0,VALID,0.0,VALID,23.598,VALID,3.0,VALID,0.566,
2011-08-01, 01:51:05,VALID,1007.8,VALID,0.0,VALID,104.0,VALID,0.0,VALID,23.618,VALID,3.0,VALID,0.212,
2011-08-01, 01:52:05,VALID,1007.754,VALID,0.0,VALID,104.0,VALID,0.0,VALID,23.598,VALID,3.0,VALID,0.0,
2011-08-01, 01:53:05,VALID,1007.739,VALID,0.0,VALID,104.0,VALID,0.0,VALID,23.579,VALID,3.0,VALID,0.0,
2011-08-01, 01:54:05,VALID,1007.7,VALID,0.0,VALID,104.0,VALID,0.0,VALID,23.559,VALID,3.0,VALID,0.0,
2011-08-01, 01:55:05,VALID,1007.678,VALID,0.0,VALID,104.0,VALID,0.0,VALID,23.538,VALID,3.0,VALID,0.0,
2011-08-01, 01:56:05,VALID,1007.692,VALID,0.0,VALID,104.0,VALID,0.0,VALID,23.538,VALID,3.0,VALID,0.0,
2011-08-01, 01:57:05,VALID,1007.7,VALID,0.0,VALID,104.0,VALID,0.0,VALID,23.501,VALID,3.0,VALID,0.0,
2011-08-01, 01:58:05,VALID,1007.693,VALID,0.0,VALID,104.0,VALID,0.0,VALID,23.52,VALID,3.0,VALID,0.0,
2011-08-01, 01:59:04,VALID,1007.684,VALID,0.0,VALID,104.0,VALID,0.0,VALID,23.501,VALID,3.0,VALID,0.0,
2011-08-01, 02:00:04,VALID,1007.691,VALID,0.0,VALID,104.0,VALID,0.0,VALID,23.52,VALID,3.0,VALID,0.0,
2011-08-01, 02:01:04,VALID,1007.708,VALID,0.0,VALID,104.0,VALID,0.0,VALID,23.54,VALID,3.0,VALID,0.0,
2011-08-01, 02:02:04,VALID,1007.702,VALID,0.0,VALID,104.0,VALID,0.0,VALID,23.559,VALID,3.0,VALID,0.0,
2011-08-01, 02:03:04,VALID,1007.676,VALID,0.0,VALID,104.0,VALID,0.0,VALID,23.558,VALID,3.0,VALID,0.0,
2011-08-01, 02:04:04,VALID,1007.655,VALID,0.0,VALID,104.0,VALID,0.0,VALID,23.558,VALID,3.0,VALID,0.0,
2011-08-01, 02:05:04,VALID,1007.662,VALID,0.0,VALID,104.0,VALID,0.106,VALID,23.558,VALID,3.0,VALID,0.0,
2011-08-01, 02:06:04,VALID,1007.643,VALID,0.0,VALID,104.0,VALID,0.0,VALID,23.558,VALID,3.0,VALID,0.0,
2011-08-01, 02:07:04,VALID,1007.621,VALID,0.0,VALID,104.0,VALID,0.0,VALID,23.558,VALID,3.0,VALID,0.146,
2011-08-01, 02:08:04,VALID,1007.605,VALID,0.0,VALID,104.0,VALID,0.0,VALID,23.538,VALID,3.0,VALID,0.0,
2011-08-01, 02:09:04,VALID,1007.551,VALID,0.0,VALID,104.0,VALID,0.0,VALID,23.519,VALID,3.0,VALID,0.0,
2011-08-01, 02:10:04,VALID,1007.49,VALID,0.0,VALID,104.0,VALID,0.0,VALID,23.499,VALID,3.0,VALID,0.0,
2011-08-01, 02:11:04,VALID,1007.474,VALID,0.0,VALID,104.0,VALID,0.0,VALID,23.419,VALID,3.0,VALID,0.073,
2011-08-01, 02:12:04,VALID,1007.442,VALID,0.0,VALID,104.0,VALID,0.0,VALID,23.402,VALID,3.0,VALID,0.434,
2011-08-01, 02:13:04,VALID,1007.382,VALID,0.0,VALID,104.0,VALID,0.106,VALID,23.419,VALID,3.0,VALID,0.543,
2011-08-01, 02:14:04,VALID,1007.375,VALID,0.0,VALID,104.0,VALID,0.0,VALID,23.48,VALID,3.0,VALID,0.54,
2011-08-01, 02:15:04,VALID,1007.337,VALID,0.0,VALID,104.0,VALID,0.0,VALID,23.441,VALID,3.0,VALID,0.458,
2011-08-01, 02:16:04,VALID,1007.36,VALID,0.0,VALID,104.0,VALID,0.106,VALID,23.441,VALID,3.0,VALID,0.31,
2011-08-01, 02:17:04,VALID,1007.378,VALID,0.0,VALID,104.0,VALID,0.0,VALID,23.441,VALID,3.0,VALID,0.205,
2011-08-01, 02:18:04,VALID,1007.367,VALID,0.0,VALID,104.0,VALID,0.106,VALID,23.4,VALID,3.0,VALID,0.0,
2011-08-01, 02:19:04,VALID,1007.361,VALID,0.0,VALID,104.0,VALID,0.0,VALID,23.402,VALID,3.0,VALID,0.0,
2011-08-01, 02:20:04,VALID,1007.349,VALID,0.0,VALID,104.0,VALID,0.0,VALID,23.382,VALID,3.0,VALID,0.0,
2011-08-01, 02:21:04,VALID,1007.346,VALID,0.0,VALID,104.0,VALID,0.106,VALID,23.363,VALID,3.0,VALID,0.0,
2011-08-01, 02:22:04,VALID,1007.348,VALID,0.0,VALID,104.0,VALID,0.106,VALID,23.363,VALID,3.0,VALID,0.0,
2011-08-01, 02:23:04,VALID,1007.359,VALID,0.0,VALID,104.0,VALID,0.106,VALID,23.343,VALID,3.0,VALID,0.02,
2011-08-01, 02:24:04,VALID,1007.402,VALID,0.0,VALID,104.0,VALID,0.0,VALID,23.343,VALID,3.0,VALID,0.365,
2011-08-01, 02:25:04,VALID,1007.421,VALID,0.0,VALID,104.0,VALID,0.0,VALID,23.363,VALID,3.0,VALID,0.489,
2011-08-01, 02:26:04,VALID,1007.443,VALID,0.0,VALID,104.0,VALID,0.0,VALID,23.402,VALID,3.0,VALID,0.561,
2011-08-01, 02:27:04,VALID,1007.439,VALID,0.0,VALID,104.0,VALID,0.0,VALID,23.421,VALID,3.0,VALID,0.589,
2011-08-01, 02:28:04,VALID,1007.48,VALID,0.0,VALID,104.0,VALID,0.0,VALID,23.4,VALID,3.0,VALID,0.386,
2011-08-01, 02:29:04,VALID,1007.454,VALID,0.0,VALID,104.0,VALID,0.106,VALID,23.38,VALID,3.0,VALID,0.256,
2011-08-01, 02:30:04,VALID,1007.468,VALID,0.0,VALID,104.0,VALID,0.0,VALID,23.382,VALID,3.0,VALID,0.194,
2011-08-01, 02:31:04,VALID,1007.449,VALID,0.0,VALID,104.0,VALID,0.0,VALID,23.363,VALID,3.0,VALID,0.148,
2011-08-01, 02:32:04,VALID,1007.439,VALID,0.0,VALID,104.0,VALID,0.0,VALID,23.342,VALID,3.0,VALID,0.0,
2011-08-01, 02:33:04,VALID,1007.447,VALID,0.0,VALID,104.0,VALID,0.0,VALID,23.343,VALID,3.0,VALID,0.0,
2011-08-01, 02:34:04,VALID,1007.45,VALID,0.0,VALID,104.0,VALID,0.0,VALID,23.324,VALID,3.0,VALID,0.0,
2011-08-01, 02:35:04,VALID,1007.442,VALID,0.0,VALID,104.0,VALID,0.0,VALID,23.304,VALID,3.0,VALID,0.254,
2011-08-01, 02:36:04,VALID,1007.455,VALID,0.0,VALID,104.0,VALID,0.0,VALID,23.264,VALID,3.0,VALID,0.251,
2011-08-01, 02:37:04,VALID,1007.441,VALID,0.0,VALID,104.0,VALID,0.106,VALID,23.304,VALID,3.0,VALID,0.3,
2011-08-01, 02:38:04,VALID,1007.444,VALID,0.0,VALID,104.0,VALID,0.0,VALID,23.285,VALID,3.0,VALID,0.252,
2011-08-01, 02:39:04,VALID,1007.461,VALID,0.0,VALID,104.0,VALID,0.0,VALID,23.285,VALID,3.0,VALID,0.104,
2011-08-01, 02:40:04,VALID,1007.444,VALID,0.0,VALID,104.0,VALID,0.0,VALID,23.265,VALID,3.0,VALID,0.022,
2011-08-01, 02:41:04,VALID,1007.415,VALID,0.0,VALID,104.0,VALID,0.106,VALID,23.226,VALID,3.0,VALID,0.0,
2011-08-01, 02:42:04,VALID,1007.431,VALID,0.0,VALID,104.0,VALID,0.0,VALID,23.187,VALID,3.0,VALID,0.0,
2011-08-01, 02:43:04,VALID,1007.402,VALID,0.0,VALID,104.0,VALID,0.0,VALID,23.148,VALID,3.0,VALID,0.0,
2011-08-01, 02:44:04,VALID,1007.436,VALID,0.0,VALID,104.0,VALID,0.106,VALID,23.148,VALID,3.0,VALID,0.193,
2011-08-01, 02:45:04,VALID,1007.441,VALID,0.0,VALID,104.0,VALID,0.0,VALID,23.129,VALID,3.0,VALID,0.179,
2011-08-01, 02:46:04,VALID,1007.462,VALID,0.0,VALID,104.0,VALID,0.0,VALID,23.129,VALID,3.0,VALID,0.155,
2011-08-01, 02:47:04,VALID,1007.457,VALID,0.0,VALID,104.0,VALID,0.0,VALID,23.129,VALID,3.0,VALID,0.05,
2011-08-01, 02:48:04,VALID,1007.472,VALID,0.0,VALID,104.0,VALID,0.0,VALID,23.129,VALID,3.0,VALID,0.0,
2011-08-01, 02:49:04,VALID,1007.456,VALID,0.0,VALID,104.0,VALID,0.0,VALID,23.109,VALID,3.0,VALID,0.0,
2011-08-01, 02:50:04,VALID,1007.448,VALID,0.0,VALID,104.0,VALID,0.106,VALID,23.09,VALID,3.0,VALID,0.0,
2011-08-01, 02:51:04,VALID,1007.444,VALID,0.0,VALID,104.0,VALID,0.0,VALID,23.09,VALID,3.0,VALID,0.0,
2011-08-01, 02:52:04,VALID,1007.475,VALID,0.0,VALID,104.0,VALID,0.0,VALID,23.109,VALID,3.0,VALID,0.0,
2011-08-01, 02:53:04,VALID,1007.494,VALID,0.0,VALID,104.0,VALID,0.0,VALID,23.109,VALID,3.0,VALID,0.002,
2011-08-01, 02:54:04,VALID,1007.483,VALID,0.0,VALID,104.0,VALID,0.0,VALID,23.069,VALID,3.0,VALID,0.004,
2011-08-01, 02:55:04,VALID,1007.497,VALID,0.0,VALID,104.0,VALID,0.106,VALID,23.071,VALID,3.0,VALID,0.136,
2011-08-01, 02:56:04,VALID,1007.482,VALID,0.0,VALID,104.0,VALID,0.0,VALID,23.051,VALID,3.0,VALID,0.111,
2011-08-01, 02:57:04,VALID,1007.467,VALID,0.0,VALID,104.0,VALID,0.0,VALID,23.071,VALID,3.0,VALID,0.077,
2011-08-01, 02:58:04,VALID,1007.46,VALID,0.0,VALID,104.0,VALID,0.0,VALID,23.051,VALID,3.0,VALID,0.111,
2011-08-01, 02:59:04,VALID,1007.43,VALID,0.0,VALID,104.0,VALID,0.0,VALID,22.993,VALID,3.0,VALID,0.131,
2011-08-01, 03:00:04,VALID,1007.453,VALID,0.0,VALID,104.0,VALID,0.0,VALID,23.012,VALID,3.0,VALID,0.281,
2011-08-01, 03:01:04,VALID,1007.434,VALID,0.0,VALID,104.0,VALID,0.0,VALID,23.053,VALID,3.0,VALID,0.221,
2011-08-01, 03:02:04,VALID,1007.428,VALID,0.0,VALID,104.0,VALID,0.106,VALID,23.051,VALID,3.0,VALID,0.312,
2011-08-01, 03:03:04,VALID,1007.426,VALID,0.0,VALID,104.0,VALID,0.0,VALID,23.071,VALID,3.0,VALID,0.179,
2011-08-01, 03:04:04,VALID,1007.417,VALID,0.0,VALID,104.0,VALID,0.0,VALID,23.09,VALID,3.0,VALID,0.279,
2011-08-01, 03:05:04,VALID,1007.432,VALID,0.0,VALID,104.0,VALID,0.0,VALID,23.09,VALID,3.0,VALID,0.147,
2011-08-01, 03:06:04,VALID,1007.415,VALID,0.0,VALID,104.0,VALID,0.106,VALID,23.071,VALID,3.0,VALID,0.0,
2011-08-01, 03:07:04,VALID,1007.409,VALID,0.0,VALID,104.0,VALID,0.0,VALID,23.051,VALID,3.0,VALID,0.302,
2011-08-01, 03:08:04,VALID,1007.408,VALID,0.0,VALID,104.0,VALID,0.0,VALID,23.071,VALID,3.0,VALID,0.192,
2011-08-01, 03:09:04,VALID,1007.444,VALID,0.0,VALID,104.0,VALID,0.0,VALID,23.071,VALID,3.0,VALID,0.412,
2011-08-01, 03:10:04,VALID,1007.466,VALID,0.0,VALID,104.0,VALID,0.0,VALID,23.051,VALID,3.0,VALID,0.242,
2011-08-01, 03:11:04,VALID,1007.497,VALID,0.0,VALID,104.0,VALID,0.106,VALID,23.051,VALID,3.0,VALID,0.241,
2011-08-01, 03:12:04,VALID,1007.484,VALID,0.0,VALID,104.0,VALID,0.0,VALID,23.069,VALID,3.0,VALID,0.247,
2011-08-01, 03:13:04,VALID,1007.525,VALID,0.0,VALID,104.0,VALID,0.106,VALID,23.09,VALID,3.0,VALID,0.244,
2011-08-01, 03:14:04,VALID,1007.51,VALID,0.0,VALID,104.0,VALID,0.0,VALID,23.109,VALID,3.0,VALID,0.246,
2011-08-01, 03:15:04,VALID,1007.524,VALID,0.0,VALID,104.0,VALID,0.106,VALID,23.129,VALID,3.0,VALID,0.176,
2011-08-01, 03:16:04,VALID,1007.539,VALID,0.0,VALID,104.0,VALID,0.0,VALID,23.088,VALID,3.0,VALID,0.281,
2011-08-01, 03:17:04,VALID,1007.54,VALID,0.0,VALID,104.0,VALID,0.0,VALID,23.108,VALID,3.0,VALID,0.2,
2011-08-01, 03:18:04,VALID,1007.569,VALID,0.0,VALID,104.0,VALID,0.0,VALID,23.109,VALID,3.0,VALID,0.095,
2011-08-01, 03:19:04,VALID,1007.592,VALID,0.0,VALID,104.0,VALID,0.0,VALID,23.088,VALID,3.0,VALID,0.229,
2011-08-01, 03:20:04,VALID,1007.599,VALID,0.0,VALID,104.0,VALID,0.0,VALID,23.109,VALID,3.0,VALID,0.406,
2011-08-01, 03:21:04,VALID,1007.62,VALID,0.0,VALID,104.0,VALID,0.0,VALID,23.071,VALID,3.0,VALID,0.315,
2011-08-01, 03:22:04,VALID,1007.607,VALID,0.0,VALID,104.0,VALID,0.0,VALID,23.051,VALID,3.0,VALID,0.274,
2011-08-01, 03:23:04,VALID,1007.602,VALID,0.0,VALID,104.0,VALID,0.0,VALID,23.012,VALID,3.0,VALID,0.195,
2011-08-01, 03:24:04,VALID,1007.565,VALID,0.0,VALID,104.0,VALID,0.0,VALID,22.954,VALID,3.0,VALID,0.107,
2011-08-01, 03:25:04,VALID,1007.566,VALID,0.0,VALID,104.0,VALID,0.0,VALID,22.934,VALID,3.0,VALID,0.114,
2011-08-01, 03:26:04,VALID,1007.549,VALID,0.0,VALID,104.0,VALID,0.0,VALID,22.893,VALID,3.0,VALID,0.0,
2011-08-01, 03:27:04,VALID,1007.519,VALID,0.0,VALID,104.0,VALID,0.0,VALID,22.915,VALID,3.0,VALID,0.0,
2011-08-01, 03:28:04,VALID,1007.472,VALID,0.0,VALID,104.0,VALID,0.0,VALID,22.915,VALID,3.0,VALID,0.0,
2011-08-01, 03:29:04,VALID,1007.493,VALID,0.0,VALID,104.0,VALID,0.0,VALID,22.915,VALID,3.0,VALID,0.0,
2011-08-01, 03:30:04,VALID,1007.48,VALID,0.0,VALID,104.0,VALID,0.0,VALID,22.893,VALID,3.0,VALID,0.0,
2011-08-01, 03:31:04,VALID,1007.463,VALID,0.0,VALID,104.0,VALID,0.0,VALID,22.915,VALID,3.0,VALID,0.0,
2011-08-01, 03:32:04,VALID,1007.463,VALID,0.0,VALID,104.0,VALID,0.106,VALID,22.915,VALID,3.0,VALID,0.0,
2011-08-01, 03:33:04,VALID,1007.464,VALID,0.0,VALID,104.0,VALID,0.0,VALID,22.915,VALID,3.0,VALID,0.0,
2011-08-01, 03:34:04,VALID,1007.45,VALID,0.0,VALID,104.0,VALID,0.0,VALID,22.895,VALID,3.0,VALID,0.0,
2011-08-01, 03:35:04,VALID,1007.451,VALID,0.0,VALID,104.0,VALID,0.0,VALID,22.895,VALID,3.0,VALID,0.0,
2011-08-01, 03:36:04,VALID,1007.429,VALID,0.0,VALID,104.0,VALID,0.0,VALID,22.895,VALID,3.0,VALID,0.0,
2011-08-01, 03:37:04,VALID,1007.422,VALID,0.0,VALID,104.0,VALID,0.0,VALID,22.893,VALID,3.0,VALID,0.0,
2011-08-01, 03:38:04,VALID,1007.423,VALID,0.0,VALID,104.0,VALID,0.0,VALID,22.915,VALID,3.0,VALID,0.0,
2011-08-01, 03:39:04,VALID,1007.383,VALID,0.0,VALID,104.0,VALID,0.0,VALID,22.893,VALID,3.0,VALID,0.0,
2011-08-01, 03:40:04,VALID,1007.388,VALID,0.0,VALID,104.0,VALID,0.0,VALID,22.915,VALID,3.0,VALID,0.0,
2011-08-01, 03:41:04,VALID,1007.377,VALID,0.0,VALID,104.0,VALID,0.0,VALID,22.895,VALID,3.0,VALID,0.0,
2011-08-01, 03:42:04,VALID,1007.375,VALID,0.0,VALID,104.0,VALID,0.0,VALID,22.895,VALID,3.0,VALID,0.0,
2011-08-01, 03:43:04,VALID,1007.383,VALID,0.0,VALID,104.0,VALID,0.106,VALID,22.855,VALID,3.0,VALID,0.0,
2011-08-01, 03:44:04,VALID,1007.379,VALID,0.0,VALID,104.0,VALID,0.0,VALID,22.856,VALID,3.0,VALID,0.0,
2011-08-01, 03:45:04,VALID,1007.394,VALID,0.0,VALID,104.0,VALID,0.0,VALID,22.816,VALID,3.0,VALID,0.0,
2011-08-01, 03:46:04,VALID,1007.384,VALID,0.0,VALID,104.0,VALID,0.0,VALID,22.858,VALID,3.0,VALID,0.0,